La Plata, MO

12:35 AM CDT on August 30, 2016 (GMT -0500)
Kirksville Regional

Weather History for KIRK - June, 2014

Change the Weather History Date:

Friday, June 6, 2014

  Actual Average Record
Temperature  
Mean Temperature 68 °F 69 °F  
Max Temperature 80 °F 79 °F 98 °F (1933)
Min Temperature 56 °F 59 °F 42 °F (1935)
Degree Days  
Heating Degree Days 0 1  
Month to date heating degree days 0 6  
Since 1 June heating degree days 0 6  
Since 1 July heating degree days 6428 5846  
Cooling Degree Days 3 5  
Month to date cooling degree days 44 25  
Year to date cooling degree days 166 87  
Since 1 June cooling degree days 44 25  
Growing Degree Days 18 (Base 50)    
Moisture  
Dew Point 59 °F    
Average Humidity 79    
Maximum Humidity 100    
Minimum Humidity 58    
Precipitation  
Precipitation 0.00 in 0.18 in 3.69 in (1947)
Month to date precipitation 3.33 1.09  
Year to date precipitation 12.43 15.24  
Sea Level Pressure  
Sea Level Pressure 29.96 in    
Wind  
Wind Speed 4 mph (SE)    
Max Wind Speed 12 mph    
Max Gust Speed 16 mph    
Visibility 5 miles    
Events Fog    
T = Trace of Precipitation, MM = Missing Value Source: NWS Daily Summary

Daily Weather History Graph

Daily Weather History Graph

Search for Another Location

Airport or City:

Trip Planner

Search our weather history database for the weather conditions in past years. The results will help you decide how hot, cold, wet, or windy it might be!

Date:

Astronomy

Jun. 06, 2014 Rise Set
Actual Time 5:41 AM CDT 8:36 PM CDT
Civil Twilight 5:08 AM CDT 9:09 PM CDT
Nautical Twilight 4:27 AM CDT 9:50 PM CDT
Astronomical Twilight 3:40 AM CDT 10:38 PM CDT
Moon 1:56 PM CDT (6/6) 1:33 AM CDT (6/6)
Length of Visible Light 16h 00m
Length of Day
14h 55m
First Quarter, 58% of the Moon is Illuminated
Jun 6
First Quarter
Jun 12
Full
Jun 19
Last Quarter
Jun 27
New
Jul 5
First Quarter

Hourly Weather History & Observations

Time (CDT) Temp. Heat Index Dew Point Humidity Pressure Visibility Wind Dir Wind Speed Gust Speed Precip Events Conditions
12:00 AM 60.1 °F - 57.9 °F 93% 29.94 in 1.8 mi Calm Calm - N/A   Clear
12:11 AM 61.0 °F - 59.0 °F 93% 29.94 in 3.0 mi Calm Calm - N/A   Clear
12:14 AM 60.1 °F - 59.0 °F 96% 29.94 in 1.5 mi Calm Calm - N/A   Clear
12:18 AM 59.0 °F - 57.9 °F 96% 29.94 in 0.5 mi Calm Calm - N/A Fog Fog
12:25 AM 59.0 °F - 57.9 °F 96% 29.93 in 1.0 mi SSE 3.5 mph - N/A   Clear
12:47 AM 59.0 °F - 57.9 °F 96% 29.93 in 3.0 mi South 3.5 mph - N/A   Clear
12:55 AM 57.9 °F - 57.0 °F 97% 29.93 in 4.0 mi Calm Calm - N/A   Clear
1:02 AM 57.9 °F - 57.0 °F 97% 29.93 in 1.8 mi Calm Calm - N/A   Clear
1:12 AM 57.9 °F - 57.0 °F 97% 29.93 in 3.0 mi Calm Calm - N/A   Clear
1:24 AM 57.9 °F - 55.9 °F 93% 29.93 in 1.8 mi Calm Calm - N/A   Clear
1:34 AM 57.0 °F - 55.0 °F 93% 29.94 in 0.8 mi Calm Calm - N/A   Clear
1:49 AM 57.2 °F - 55.4 °F 94% 29.93 in 0.5 mi Calm Calm - N/A Fog Fog
1:55 AM 57.9 °F - 55.9 °F 93% 29.94 in 0.5 mi Calm Calm - N/A Fog Fog
2:05 AM 59.0 °F - 57.0 °F 93% 29.93 in 0.2 mi Calm Calm - N/A Fog Fog
2:19 AM 57.0 °F - 55.9 °F 96% 29.93 in 0.5 mi Calm Calm - N/A Fog Fog
2:55 AM 57.0 °F - 55.9 °F 96% 29.94 in 0.8 mi South 4.6 mph - N/A   Clear
3:01 AM 57.9 °F - 55.9 °F 93% 29.94 in 2.0 mi South 3.5 mph - N/A   Clear
3:19 AM 59.0 °F - 57.0 °F 93% 29.94 in 0.8 mi SSW 3.5 mph - N/A   Clear
3:55 AM 57.2 °F - 55.4 °F 94% 29.95 in 0.2 mi Calm Calm - N/A Fog Fog
4:32 AM 59.0 °F - 57.9 °F 96% 29.96 in 0.2 mi Calm Calm - N/A Fog Fog
4:40 AM 59.0 °F - 57.9 °F 96% 29.96 in 1.0 mi Calm Calm - N/A   Clear
4:52 AM 57.2 °F - 55.4 °F 94% 29.96 in 3.0 mi NNE 5.8 mph - N/A   Clear
4:55 AM 57.0 °F - 55.9 °F 96% 29.96 in 3.0 mi NE 6.9 mph - N/A   Clear
5:12 AM 57.0 °F - 55.9 °F 96% 29.95 in 1.5 mi Calm Calm - N/A   Clear
5:21 AM 57.9 °F - 55.9 °F 93% 29.96 in 0.8 mi NNE 3.5 mph - N/A   Clear
5:25 AM 57.0 °F - 55.0 °F 93% 29.96 in 2.0 mi Calm Calm - N/A   Clear
5:28 AM 55.9 °F - 55.0 °F 97% 29.96 in 3.0 mi Calm Calm - N/A   Partly Cloudy
5:31 AM 57.0 °F - 55.0 °F 93% 29.96 in 1.5 mi Calm Calm - N/A   Partly Cloudy
5:33 AM 57.0 °F - 55.9 °F 96% 29.96 in 0.5 mi Calm Calm - N/A Fog Fog
5:55 AM 57.0 °F - 55.0 °F 93% 29.97 in 0.2 mi Calm Calm - N/A Fog Fog
6:45 AM 60.1 °F - 60.1 °F 100% 29.97 in 1.2 mi Calm Calm - N/A   Scattered Clouds
6:49 AM 60.8 °F - 60.8 °F 100% 29.97 in 3.0 mi Calm Calm - N/A   Partly Cloudy
6:55 AM 62.1 °F - 61.0 °F 96% 29.97 in 3.0 mi Calm Calm - N/A   Clear
7:55 AM 68.0 °F - 64.0 °F 87% 29.99 in 7.0 mi ENE 3.5 mph - N/A   Clear
8:55 AM 71.1 °F - 64.0 °F 78% 29.99 in 10.0 mi East 5.8 mph - N/A   Partly Cloudy
9:36 AM 72.0 °F - 64.0 °F 76% 29.99 in 10.0 mi ESE 6.9 mph - N/A   Mostly Cloudy
9:55 AM 71.6 °F - 64.4 °F 78% 29.99 in 10.0 mi East 4.6 mph - N/A   Mostly Cloudy
10:55 AM 73.0 °F - 63.0 °F 71% 30.00 in 10.0 mi ESE 6.9 mph - N/A   Overcast
11:51 AM 73.4 °F - 64.4 °F 73% 30.01 in 10.0 mi SSE 8.1 mph - N/A   Overcast
11:55 AM 73.9 °F - 64.0 °F 71% 30.00 in 10.0 mi SE 8.1 mph - N/A   Overcast
12:55 PM 75.9 °F - 63.0 °F 64% 30.00 in 10.0 mi SSW 3.5 mph - N/A   Mostly Cloudy
1:55 PM 77.0 °F - 64.0 °F 64% 30.00 in 10.0 mi South 6.9 mph - N/A   Clear
2:55 PM 78.1 °F - 62.1 °F 58% 29.98 in 10.0 mi Calm Calm - N/A   Partly Cloudy
3:55 PM 78.8 °F - 62.6 °F 57% 29.96 in 10.0 mi SSE 4.6 mph - N/A   Scattered Clouds
4:55 PM 80.1 °F 81.7 °F 64.0 °F 58% 29.94 in 10.0 mi SSE 8.1 mph - N/A   Clear
5:55 PM 80.1 °F 81.7 °F 64.0 °F 58% 29.93 in 10.0 mi SE 8.1 mph - N/A   Clear
6:55 PM 78.1 °F - 63.0 °F 60% 29.92 in 10.0 mi ESE 5.8 mph - N/A   Clear
7:55 PM 75.0 °F - 63.0 °F 66% 29.94 in 10.0 mi SE 4.6 mph - N/A   Clear
8:55 PM 70.0 °F - 64.0 °F 81% 29.96 in 10.0 mi SSE 5.8 mph - N/A   Clear
9:55 PM 66.0 °F - 62.1 °F 87% 29.98 in 10.0 mi Calm Calm - N/A   Clear
10:55 PM 68.0 °F - 63.0 °F 84% 29.94 in 10.0 mi ESE 5.8 mph - N/A   Clear
11:55 PM 68.0 °F - 63.0 °F 84% 29.92 in 10.0 mi ESE 5.8 mph - N/A   Clear